Regional Weather Roundup
Issued by NWS

Home | Current Version | Previous Version | Text Only | Print | Product List | Glossary Off
Versions: 1 2 3 4 5 6 7 8 9 10 11 12 13 14 15 16 17 18 19 20 21 22 23 24 25 26 27 28 29 30 31 32 33 34 35 36 37 38 39 40 41 42 43 44 45 46 47 48 49 50

000
ASUS43 KFSD 262302
RWRSD

WEATHER ROUNDUP FOR SOUTH DAKOTA
NATIONAL WEATHER SERVICE SIOUX FALLS SD
500 PM CST FRI DEC 26 2014

NOTE: "FAIR" INDICATES FEW OR NO CLOUDS BELOW 12,000 FEET WITH NO
SIGNIFICANT WEATHER AND/OR OBSTRUCTIONS TO VISIBILITY.


SDZ001>005-009-010-012>017-270000-
NORTHWEST AND NORTH CENTRAL SOUTH DAKOTA

CITY           SKY/WX    TMP DP  RH WIND       PRES   REMARKS
BUFFALO          N/A     18  11  74 NW6       30.03S WCI  10
FAITH            N/A     17   8  67 NW3       30.12R
MOBRIDGE       CLOUDY    18  12  77 NE6       30.14R WCI  10
$$

SDZ012>016-024>037-041>051-057-063-072>074-270000-
SOUTHWEST AND SOUTH CENTRAL SOUTH DAKOTA

CITY           SKY/WX    TMP DP  RH WIND       PRES   REMARKS
RAPID CTY ARPT CLOUDY    18  12  77 N3        30.09S
PIERRE         CLOUDY    20  14  77 N10       30.16R WCI   9
CUSTER         CLOUDY    16  10  77 SW3       29.92S
ELLSWORTH AFB  CLOUDY    18  13  82 NE2       30.08
PHILIP         CLOUDY    20  12  71 N9        30.16R WCI   9
PINE RIDGE     CLOUDY    19  12  74 N8        30.07F WCI   9
WINNER         CLOUDY    22  17  81 N10       30.13R WCI  11
$$

SDZ004>011-016>023-039-040-270000-
NORTHEAST SOUTH DAKOTA

CITY           SKY/WX    TMP DP  RH WIND       PRES   REMARKS
ABERDEEN       CLOUDY    19  14  81 N13       30.18R WCI   6
WATERTOWN      CLOUDY    21  18  88 N10       30.10R WCI  10
SISSETON         N/A     22  18  85 N18       30.14R WCI   7
$$

SDZ017-020-022-023-036>040-048>070-270000-
SOUTHEAST SOUTH DAKOTA

CITY           SKY/WX    TMP DP  RH WIND       PRES   REMARKS
SIOUX FALLS    LGT SNOW  25  22  88 N7        30.09R VSB 1   WCI  17
HURON          CLOUDY    23  17  78 N14       30.15R WCI  11
MITCHELL       CLOUDY    24  21  88 N14       30.14R WCI  12
YANKTON        CLOUDY    25  21  86 N14       30.10S WCI  13
$$

ABBREVIATIONS USED IN REMARKS
   TC - TEMPERATURE IN CELSIUS
  WCI - WIND CHILL INDEX
   HX - HEAT INDEX
  VSB - VISIBILITY



USA.gov is the U.S. government's official web portal to all federal, state and local government web resources and services.